Regional Weather Roundup
Issued by NWS

Home | Current Version | Previous Version | Graphics & Text | Print | Product List | Glossary On
Versions: 1 2 3 4 5 6 7 8 9 10 11 12 13 14 15 16 17 18 19 20 21 22 23 24 25 26 27 28 29 30 31 32 33 34 35 36 37 38 39 40 41 42 43 44 45 46 47 48 49 50
000
ASUS43 KLOT 252212
RWRIL

ILLINOIS REGIONAL WEATHER ROUNDUP
NATIONAL WEATHER SERVICE CHICAGO/ROMEOVILLE IL
500 PM CDT SAT APR 25 2015

NOTE: "FAIR" INDICATES FEW OR NO CLOUDS BELOW 12,000 FEET WITH NO
SIGNIFICANT WEATHER AND/OR OBSTRUCTIONS TO VISIBILITY.

* THESE STATIONS ARE NOT UNDER NWS QUALITY CONTROL. THEY ALSO MAY NOT
  REPORT WEATHER SUCH AS PRECIPITATION OR FOG.

ILZ001-002-007-009-015-016-024-252300-
NORTHWEST ILLINOIS

CITY           SKY/WX    TMP DP  RH WIND       PRES   REMARKS
MOLINE         CLOUDY    49  42  77 E16       29.73R
STERLING*      CLOUDY    48  39  71 NE17G25   29.75R
SAVANNA*       CLOUDY    50  39  65 E17G25    29.77R
$$

ILZ003-004-008-010-011-017-018-252300-
NORTH CENTRAL ILLINOIS

CITY           SKY/WX    TMP DP  RH WIND       PRES   REMARKS
ROCKFORD       CLOUDY    48  38  68 NE17G25   29.79R
FREEPORT*      CLOUDY    47  38  73 NE16      29.79R
ROCHELLE*      CLOUDY    46  40  80 NE18G26   29.76R
DE KALB*       CLOUDY    45  39  78 E18G24    29.76R
PERU*          CLOUDY    48  43  83 E14       29.73R
$$

ILZ005-006-012>014-019>023-252300-
NORTHEAST ILLINOIS

CITY           SKY/WX    TMP DP  RH WIND       PRES   REMARKS
CHICAGO-OHARE  CLOUDY    46  40  79 NE15      29.75R
CHICAGO-MIDWAY CLOUDY    48  39  71 E21       29.75R
AURORA         CLOUDY    48  39  71 E16G24    29.75R
LANSING*       DRIZZLE   45  40  82 NE13G22   29.73R
JOLIET*        DRIZZLE   47  43  86 E13G20    29.74R
WAUKEGAN       CLOUDY    42  33  70 N14G24    29.78R
DUPAGE AIRPORT CLOUDY    47  39  74 NE18G24   29.74R
KANKAKEE*      CLOUDY    47  42  83 NE17G24   29.69R
WHEELING       PTSUNNY   45  38  76 NE17      29.78R
MORRIS*        CLOUDY    46  41  82 E15       29.70R
ROMEOVILLE*    CLOUDY    46  40  82 E16       29.74R
NORTHERLY ISL    N/A     44  40  85 NE17        N/A
$$

LMZ740>746-252300-
SOUTHERN LAKE MICHIGAN

STATION/POSITION SKY/WX   TEMP    WIND        PRES    VSBY  WAVE
                          AIR SEA DIR/SP/G                  HT/PER
                          (F)     (DEG/KT/KT) (MB)    (MI)  (FT/S)
HARRISON CRIB              41      50/ 17/ 19   N/A
BURNHAM HARBOR             43      10/ 10/ 17   N/A
CALUMET HARBOR             44      40/ 16/ 20   N/A
BURNS HARBOR               46      60/ 21/ 26 1006.1F
MICHIGAN CITY              45      50/ 20/ 24   N/A
MICHIGAN CITY 6N           46 45   70/ 16/ 21   N/A           3/ 3
$$

ILZ025>027-034>036-040-047-049-050-058-095>099-252300-
WEST-CENTRAL ILLINOIS

CITY           SKY/WX    TMP DP  RH WIND       PRES   REMARKS
QUINCY         CLOUDY    53  49  86 NE20      29.60R
GALESBURG*     CLOUDY    46  44  91 NE17      29.70R
MACOMB*        CLOUDY    48  46  90 NE17      29.69R
JACKSONVILLE*  CLOUDY    58  53  82 NE9       29.59R
PITTSFIELD*    DRIZZLE   56  53  89 NE8       29.59R
$$

ILZ028>032-037-038-041>044-048-051>054-059>061-252300-
CENTRAL ILLINOIS

CITY           SKY/WX    TMP DP  RH WIND       PRES   REMARKS
PONTIAC        CLOUDY    48  45  88 NE17      29.69R
BLOOMINGTON    CLOUDY    48  46  93 E22       29.65R
DECATUR        CLOUDY    53  48  83 E15       29.58R
PEORIA         CLOUDY    49  43  80 NE16      29.67R
LACON*         CLOUDY    46  42  86 NE12      29.70R
LINCOLN*       CLOUDY    53  48  84 NE13      29.61R
SPRINGFIELD    CLOUDY    56  50  80 NE5       29.60R
TAYLORVILLE    CLOUDY    52  50  93 NE8       29.57R
$$

ILZ033-039-045-046-055>057-062-063-252300-
EAST-CENTRAL ILLINOIS

CITY           SKY/WX    TMP DP  RH WIND       PRES   REMARKS
CHAMPAIGN      CLOUDY    50  46  86 E14       29.59R
DANVILLE*      CLOUDY    47  44  87 E12G24    29.59R
RANTOUL*       CLOUDY    50  46  86 E17G23    29.63R
MATTOON        CLOUDY    51  49  92 E10       29.55R
PARIS*         RAIN      50  48  93 E13       29.58F
$$

ILZ079-100>102-252300-
SOUTHWEST ILLINOIS

CITY           SKY/WX    TMP DP  RH WIND       PRES   REMARKS
ALTON          CLOUDY    55  55 100 NE7       29.55R
BELLEVILLE     CLOUDY    61  61 100 N7        29.52R
CAHOKIA*       LGT RAIN  60  57  89 N9        29.54R FOG
SPARTA*        LGT RAIN  64  59  82 NW12G20   29.52R
$$

ILZ064>066-069>071-074>076-080>082-084>086-088>090-092>094-252300-
SOUTH-CENTRAL ILLINOIS

CITY           SKY/WX    TMP DP  RH WIND       PRES   REMARKS
CARBONDALE     TSTM      62  58  86 S9        29.51R FOG
CAIRO*         MOSUNNY   77  62  59 SW15G21   29.45F
EFFINGHAM*     LGT RAIN  53  51  92 NE6       29.55R
MARION         CLOUDY    64  61  88 N12       29.49
MT. VERNON     CLOUDY    64  57  77 N10G16    29.50R
CENTRALIA*     LGT RAIN  58  56  91 NE8       29.51R
SALEM*         RAIN      58  55  91 E8        29.52R
METROPOLIS*    MOSUNNY   78  61  54 SW17G24   29.44S HX  80
$$

ILZ067-068-072-073-078-083-087-091-252300-
SOUTHEAST ILLINOIS

CITY           SKY/WX    TMP DP  RH WIND       PRES   REMARKS
LAWRENCEVILLE  CLOUDY    54  52  93 NE15      29.53F
FLORA*         DRIZZLE   55  53  95 NE6       29.53R
FAIRFIELD*     CLOUDY    59  58  97 NE14      29.48R FOG
HARRISBURG*    PTSUNNY   62  62 100 N13G23    29.47R
ROBINSON*      DRIZZLE   53  52  97 E13       29.55F
CARMI*         CLOUDY    60  55  83 N10G36    29.47R VSB 3/4
$$

ABBREVIATIONS USED IN REMARKS
   TC - TEMPERATURE IN CELSIUS
  WCI - WIND CHILL INDEX
   HX - HEAT INDEX
  VSB - VISIBILITY
$$




USA.gov is the U.S. government's official web portal to all federal, state and local government web resources and services.